This demonstration page uses our WeatherBlox Daily Observations layout. Learn more.

36.17497, -115.13722

Hourly Observations for July 19, 2015

Temp ( °F °C ) Dew Point ( °F °C ) Humidity (%) Winds ( mph kmh ) Pressure ( in mb ) Visibility ( mi km ) Precip ( " mm )
12:53 am 00:53 Clear 76 24.4 60 15.6 58 58 SE 7 11 30.02 1017 10 16.0934 0 0
1:53 am 01:53 Clear 76 24.4 60 15.6 58 58 NNE 6 9 30.04 1017 10 16.0934 0 0
2:53 am 02:53 Clear 75 23.9 60 15.6 60 60 NE 6 9 30.04 1017 10 16.0934 0 0
3:53 am 03:53 Partly Cloudy 75 23.9 61 16.1 62 62 E 8 13 30.04 1017 10 16.0934 0 0
4:53 am 04:53 Clear 74 23.3 62 16.7 67 67 ESE 5 7 30.06 1018 10 16.0934 0 0
5:53 am 05:53 Sunny 73 22.8 61 16.1 66 66 SE 6 9 30.07 1018 10 16.0934 0 0
6:53 am 06:53 Sunny 75 23.9 62 16.7 64 64 Calm 30.1 1019 10 16.0934 0 0
7:53 am 07:53 Sunny 76 24.4 61 16.1 60 60 SSE 3 6 30.11 1020 10 16.0934 0 0
8:53 am 08:53 Sunny 79 26.1 60 15.6 52 52 VRB 7 11 30.11 1020 10 16.0934 0 0
9:53 am 09:53 Mostly Sunny 80 26.7 59 15 49 49 SSE 7 11 30.11 1020 10 16.0934 0 0
10:53 am 10:53 Sunny 82 27.8 59 15 46 46 VRB 3 6 30.1 1019 10 16.0934 0 0
11:53 am 11:53 Sunny 84 28.9 59 15 43 43 undefined N/A 30.09 1019 10 16.0934 0 0
12:53 pm 12:53 Sunny 87 30.6 57 13.9 36 36 E 8 13 30.07 1018 10 16.0934 0 0
1:53 pm 13:53 Sunny 90 32.2 55 12.8 31 31 E 5 7 30.04 1017 10 16.0934 0 0
2:53 pm 14:53 Sunny 91 32.8 54 12.2 28 28 VRB 6 9 30.01 1016 10 16.0934 0 0
3:53 pm 15:53 Sunny 92 33.3 52 11.1 26 26 SE 7 11 29.98 1015 10 16.0934 0 0
4:53 pm 16:53 Sunny 93 33.9 51 10.6 24 24 ESE 7 11 29.95 1014 10 16.0934 0 0
5:53 pm 17:53 Sunny 93 33.9 49 9.4 22 22 VRB 7 11 29.94 1014 10 16.0934 0 0
6:53 pm 18:53 Sunny 92 33.3 50 10 24 24 Calm 29.94 1014 10 16.0934 0 0
7:53 pm 19:53 Sunny 92 33.3 53 11.7 27 27 SE 9 15 29.95 1014 10 16.0934 0 0
8:41 pm 20:41 Clear 86 30 58 14.4 39 39 S 15 24 29.85 1011 10 16.0934 0 0
8:53 pm 20:53 Clear 86 30 58 14.4 39 39 S 13 20 29.97 1015 10 16.0934 0 0
9:53 pm 21:53 Clear 86 30 56 13.3 36 36 SSW 16 26 29.99 1016 10 16.0934 0 0
10:53 pm 22:53 Clear 86 30 56 13.3 36 36 S 14 22 30 1016 10 16.0934 0 0
11:53 pm 23:53 Cloudy 86 30 53 11.7 32 32 SSW 18 30 30 1016 10 16.0934 0 0

Powered by AerisWeather